Total_Precipitation_Accumulation
0.12 0.19 0.28 0.24 0.19 0.23 0.27 0.30 0.33 0.29 0.21 0.19 0.15 0.16 0.17 0.22 0.24 0.23 0.19 0.15 0.14 0.19 0.33 0.32 0.32 0.39 0.43 0.41 0.56 0.67 0.68 0.51 0.71 0.79 0.37 0.17 0.10 0.10 0.08 0.06 0.05 0.05 0.05
0.36 0.54 0.71 0.53 0.36 0.40 0.43 0.36 0.29 0.25 0.16 0.10 0.07 0.06 0.07 0.10 0.11 0.12 0.13 0.11 0.14 0.18 0.24 0.25 0.26 0.30 0.34 0.34 0.39 0.48 0.52 0.44 0.70 0.79 0.64 0.33 0.16 0.10 0.06 0.08 0.08 0.08 0.09
0.59 0.83 0.99 0.89 0.76 0.86 0.78 0.56 0.37 0.29 0.15 0.08 0.04 0.04 0.04 0.04 0.05 0.05 0.06 0.07 0.11 0.15 0.16 0.17 0.21 0.26 0.28 0.31 0.36 0.47 0.58 0.49 0.54 0.74 0.83 0.58 0.29 0.23 0.17 0.19 0.23 0.23 0.25
0.40 0.59 0.74 0.80 0.86 0.90 0.75 0.53 0.34 0.24 0.16 0.11 0.09 0.09 0.06 0.04 0.03 0.04 0.05 0.06 0.08 0.08 0.09 0.12 0.23 0.30 0.35 0.40 0.39 0.44 0.52 0.54 0.47 0.54 0.67 0.70 0.66 0.54 0.30 0.21 0.23 0.28 0.29
0.24 0.33 0.38 0.44 0.51 0.52 0.45 0.33 0.31 0.29 0.23 0.19 0.18 0.14 0.07 0.03 0.02 0.03 0.05 0.06 0.05 0.05 0.05 0.06 0.11 0.23 0.31 0.36 0.37 0.39 0.44 0.50 0.48 0.47 0.51 0.61 0.71 0.67 0.51 0.28 0.21 0.27 0.28
0.23 0.28 0.26 0.23 0.21 0.19 0.18 0.16 0.20 0.24 0.21 0.20 0.20 0.17 0.13 0.09 0.06 0.06 0.08 0.07 0.06 0.05 0.04 0.05 0.08 0.13 0.15 0.19 0.26 0.30 0.34 0.38 0.41 0.44 0.47 0.51 0.53 0.57 0.64 0.51 0.39 0.35 0.36
0.17 0.21 0.21 0.17 0.14 0.12 0.09 0.07 0.08 0.14 0.16 0.16 0.18 0.17 0.16 0.14 0.12 0.11 0.10 0.10 0.08 0.08 0.08 0.09 0.13 0.18 0.19 0.19 0.22 0.27 0.30 0.35 0.39 0.41 0.44 0.48 0.51 0.59 0.67 0.63 0.52 0.48 0.54
0.08 0.11 0.11 0.10 0.09 0.07 0.06 0.05 0.04 0.05 0.07 0.09 0.13 0.14 0.15 0.14 0.14 0.21 0.19 0.15 0.11 0.10 0.13 0.18 0.19 0.18 0.21 0.24 0.31 0.36 0.38 0.40 0.41 0.39 0.47 0.51 0.51 0.59 0.65 0.68 0.67 0.61 0.67
0.05 0.05 0.05 0.05 0.04 0.04 0.04 0.04 0.03 0.04 0.04 0.05 0.07 0.09 0.11 0.14 0.19 0.24 0.21 0.16 0.14 0.09 0.09 0.14 0.22 0.22 0.23 0.28 0.36 0.40 0.41 0.44 0.49 0.51 0.55 0.58 0.57 0.58 0.61 0.68 0.71 0.69 0.68
0.02 0.02 0.03 0.03 0.02 0.02 0.02 0.02 0.02 0.03 0.03 0.03 0.03 0.05 0.10 0.17 0.24 0.28 0.24 0.20 0.16 0.13 0.12 0.14 0.19 0.20 0.21 0.27 0.38 0.46 0.49 0.55 0.61 0.58 0.58 0.64 0.64 0.62 0.64 0.67 0.69 0.73 0.77
0.01 0.01 0.01 0.01 0.01 0.01 0.01 0.02 0.02 0.02 0.02 0.02 0.03 0.07 0.16 0.20 0.27 0.42 0.40 0.24 0.17 0.15 0.13 0.13 0.13 0.11 0.11 0.16 0.29 0.49 0.58 0.65 0.66 0.65 0.66 0.65 0.66 0.62 0.56 0.60 0.64 0.67 0.70
0.00 0.00 0.00 0.00 0.01 0.01 0.01 0.01 0.01 0.02 0.02 0.02 0.02 0.05 0.14 0.19 0.23 0.30 0.33 0.25 0.19 0.16 0.14 0.12 0.11 0.09 0.10 0.15 0.26 0.41 0.54 0.65 0.73 0.71 0.68 0.57 0.51 0.51 0.50 0.53 0.56 0.55 0.56
0.00 0.00 0.00 0.00 0.01 0.01 0.01 0.01 0.01 0.01 0.01 0.02 0.02 0.04 0.06 0.07 0.08 0.10 0.14 0.19 0.21 0.21 0.18 0.15 0.14 0.18 0.23 0.29 0.35 0.39 0.48 0.58 0.63 0.61 0.54 0.45 0.43 0.43 0.45 0.44 0.45 0.42 0.40
0.00 0.00 0.00 0.00 0.00 0.00 0.00 0.01 0.01 0.01 0.01 0.02 0.03 0.03 0.03 0.03 0.03 0.06 0.10 0.16 0.18 0.19 0.17 0.17 0.20 0.26 0.33 0.36 0.35 0.35 0.39 0.41 0.45 0.44 0.38 0.33 0.31 0.31 0.32 0.32 0.29 0.28 0.26
0.01 0.01 0.01 0.01 0.01 0.01 0.01 0.01 0.01 0.01 0.02 0.03 0.08 0.08 0.06 0.05 0.04 0.06 0.08 0.10 0.10 0.10 0.13 0.17 0.21 0.26 0.30 0.30 0.32 0.32 0.28 0.30 0.29 0.24 0.22 0.18 0.18 0.21 0.22 0.20 0.17 0.17 0.18
0.02 0.02 0.02 0.02 0.01 0.01 0.01 0.01 0.01 0.01 0.03 0.07 0.12 0.15 0.12 0.06 0.03 0.03 0.04 0.05 0.05 0.06 0.10 0.13 0.16 0.18 0.19 0.23 0.23 0.21 0.17 0.16 0.17 0.16 0.13 0.10 0.10 0.11 0.14 0.14 0.12 0.12 0.13
0.03 0.02 0.01 0.01 0.01 0.01 0.01 0.02 0.02 0.02 0.08 0.11 0.10 0.16 0.16 0.06 0.02 0.02 0.03 0.05 0.04 0.06 0.10 0.12 0.12 0.14 0.16 0.12 0.09 0.08 0.09 0.11 0.13 0.13 0.12 0.08 0.06 0.06 0.06 0.07 0.06 0.07 0.08
0.01 0.00 0.00 0.00 0.00 0.00 0.00 0.02 0.04 0.04 0.11 0.14 0.10 0.16 0.16 0.07 0.06 0.06 0.06 0.06 0.06 0.09 0.12 0.13 0.13 0.15 0.16 0.11 0.07 0.05 0.05 0.09 0.10 0.09 0.09 0.08 0.07 0.06 0.04 0.04 0.05 0.05 0.05
0.00 0.00 0.00 0.00 0.00 0.00 0.01 0.02 0.07 0.09 0.10 0.11 0.10 0.15 0.19 0.13 0.12 0.11 0.12 0.12 0.13 0.16 0.16 0.16 0.16 0.17 0.18 0.13 0.08 0.06 0.07 0.09 0.09 0.07 0.06 0.06 0.05 0.03 0.03 0.04 0.04 0.04 0.04
0.00 0.00 0.00 0.00 0.01 0.01 0.02 0.04 0.05 0.09 0.11 0.10 0.11 0.15 0.25 0.25 0.21 0.20 0.20 0.19 0.23 0.25 0.25 0.23 0.20 0.21 0.24 0.19 0.12 0.10 0.11 0.13 0.09 0.07 0.04 0.03 0.03 0.01 0.01 0.04 0.03 0.02 0.02
0.00 0.01 0.01 0.01 0.02 0.03 0.05 0.08 0.09 0.10 0.12 0.13 0.16 0.20 0.28 0.37 0.35 0.33 0.30 0.28 0.28 0.34 0.40 0.41 0.35 0.31 0.31 0.28 0.19 0.14 0.16 0.16 0.11 0.05 0.03 0.02 0.02 0.01 0.01 0.02 0.04 0.02 0.01
0.01 0.02 0.03 0.04 0.05 0.08 0.13 0.16 0.16 0.17 0.19 0.20 0.22 0.27 0.36 0.38 0.39 0.41 0.43 0.45 0.44 0.47 0.52 0.57 0.53 0.48 0.44 0.36 0.26 0.18 0.18 0.18 0.14 0.07 0.02 0.01 0.01 0.01 0.01 0.01 0.01 0.00 0.00
0.02 0.03 0.05 0.07 0.10 0.14 0.23 0.28 0.29 0.31 0.30 0.28 0.29 0.32 0.38 0.46 0.55 0.55 0.52 0.55 0.58 0.61 0.67 0.71 0.67 0.63 0.64 0.54 0.37 0.28 0.24 0.21 0.17 0.09 0.04 0.01 0.01 0.01 0.00 0.00 0.00 0.00 0.00
0.03 0.04 0.06 0.10 0.15 0.23 0.33 0.40 0.41 0.41 0.39 0.34 0.32 0.35 0.40 0.46 0.55 0.66 0.67 0.70 0.71 0.74 0.82 0.83 0.76 0.74 0.79 0.72 0.50 0.39 0.33 0.26 0.17 0.08 0.04 0.01 0.01 0.00 0.00 0.00 0.00 0.00 0.00
0.03 0.05 0.09 0.14 0.17 0.27 0.40 0.47 0.49 0.49 0.46 0.40 0.35 0.34 0.38 0.43 0.50 0.59 0.66 0.72 0.75 0.75 0.79 0.82 0.75 0.75 0.84 0.80 0.61 0.48 0.42 0.31 0.17 0.07 0.03 0.01 0.00 0.00 0.00 0.00 0.00 0.00 0.00
0.06 0.09 0.13 0.18 0.21 0.27 0.37 0.45 0.57 0.66 0.65 0.55 0.45 0.39 0.37 0.41 0.47 0.53 0.53 0.51 0.58 0.60 0.61 0.64 0.59 0.58 0.76 0.82 0.65 0.51 0.46 0.34 0.17 0.07 0.02 0.00 0.00 0.00 0.00 0.00 0.00 0.00 0.00